| time (UTC) | temp F | wind direction | speed knots | gust knots | rain 1hr in | rain 24hr in | rain mn in | humidity % | barometer mb |
| 20260507221849 | 51 | 186 | 0.9 | 4.3 | 0.00 | 0.01 | 0.01 | 75 | 1013.4 |
| 20260507220349 | 51 | 120 | 1.7 | 3.5 | 0.00 | 0.01 | 0.01 | 76 | 1013.4 |
| 20260507214851 | 52 | 122 | 0.9 | 2.6 | 0.00 | 0.01 | 0.01 | 76 | 1013.3 |
| 20260507213351 | 52 | 127 | 0.9 | 2.6 | 0.00 | 0.01 | 0.01 | 77 | 1013.3 |
| 20260507211851 | 52 | 129 | 1.7 | 5.2 | 0.00 | 0.01 | 0.01 | 77 | 1013.2 |
| 20260507210349 | 52 | 130 | 1.7 | 4.3 | 0.00 | 0.01 | 0.01 | 79 | 1013.2 |
| 20260507204849 | 52 | 134 | 0.9 | 2.6 | 0.00 | 0.01 | 0.01 | 79 | 1013.1 |
| 20260507203350 | 52 | 114 | 1.7 | 5.2 | 0.00 | 0.01 | 0.01 | 81 | 1012.9 |
| 20260507201850 | 51 | 122 | 1.7 | 3.5 | 0.00 | 0.01 | 0.01 | 84 | 1012.8 |
| 20260507200350 | 51 | 122 | 0.9 | 2.6 | 0.00 | 0.01 | 0.01 | 86 | 1012.7 |
| 20260507194849 | 52 | 112 | 0.9 | 2.6 | 0.00 | 0.01 | 0.01 | 86 | 1012.6 |
| 20260507193349 | 53 | 115 | 0.0 | 1.7 | 0.00 | 0.01 | 0.01 | 85 | 1012.5 |
| 20260507191847 | 53 | 127 | 0.0 | 1.7 | 0.01 | 0.01 | 0.01 | 85 | 1012.4 |
| 20260507190341 | 53 | 131 | 0.0 | 1.7 | 0.01 | 0.01 | 0.01 | 84 | 1012.4 |
| 20260507184842 | 53 | 222 | 0.0 | 2.6 | 0.01 | 0.01 | 0.01 | 83 | 1012.3 |
| 20260507183340 | 53 | 115 | 0.9 | 3.5 | 0.01 | 0.01 | 0.01 | 82 | 1012.2 |
| 20260507181838 | 53 | 117 | 1.7 | 2.6 | 0.00 | 0.00 | 0.00 | 83 | 1012.2 |
| 20260507180339 | 53 | 117 | 0.9 | 2.6 | 0.00 | 0.00 | 0.00 | 83 | 1012.2 |
| 20260507174836 | 53 | 127 | 0.9 | 3.5 | 0.00 | 0.00 | 0.00 | 84 | 1012.2 |
| 20260507173335 | 53 | 101 | 1.7 | 3.5 | 0.00 | 0.00 | 0.00 | 85 | 1012.3 |
| 20260507171835 | 53 | 139 | 0.9 | 1.7 | 0.00 | 0.00 | 0.00 | 84 | 1012.3 |
| 20260507170334 | 53 | 112 | 1.7 | 3.5 | 0.00 | 0.00 | 0.00 | 81 | 1012.3 |
| 20260507164830 | 54 | 101 | 1.7 | 5.2 | 0.00 | 0.00 | 0.00 | 79 | 1012.4 |
| 20260507164035 | 55 | 271 | 3.5 | 7.0 | 0.00 | 0.00 | 0.00 | 76 | 1012.2 |
| 20260507161833 | 55 | 282 | 2.6 | 10.4 | 0.00 | 0.00 | 0.00 | 72 | 1012.1 |
| 20260507160326 | 57 | 166 | 2.6 | 7.0 | 0.00 | 0.00 | 0.00 | 64 | 1011.9 |
| 20260507154826 | 58 | 205 | 2.6 | 8.7 | 0.00 | 0.00 | 0.00 | 63 | 1011.9 |
| 20260507153324 | 57 | 155 | 2.6 | 8.7 | 0.00 | 0.00 | 0.00 | 63 | 1012.0 |
| 20260507151826 | 57 | 122 | 2.6 | 5.2 | 0.00 | 0.00 | 0.00 | 63 | 1012.0 |
| 20260507151018 | 57 | 179 | 2.6 | 8.7 | 0.00 | 0.00 | 0.00 | 64 | 1012.0 |
| 20260507144824 | 58 | 140 | 3.5 | 10.4 | 0.00 | 0.00 | 0.00 | 62 | 1012.1 |
| 20260507143320 | 57 | 131 | 3.5 | 9.6 | 0.00 | 0.00 | 0.00 | 62 | 1012.2 |
| 20260507142524 | 57 | 198 | 3.5 | 7.8 | 0.00 | 0.00 | 0.00 | 63 | 1012.4 |
| 20260507141010 | 57 | 116 | 3.5 | 9.6 | 0.00 | 0.00 | 0.00 | 63 | 1012.5 |
| 20260507134820 | 58 | 124 | 4.3 | 10.4 | 0.00 | 0.00 | 0.00 | 63 | 1012.5 |
| 20260507133321 | 58 | 168 | 3.5 | 8.7 | 0.00 | 0.00 | 0.00 | 62 | 1012.6 |
| 20260507131820 | 58 | 135 | 1.7 | 6.1 | 0.00 | 0.00 | 0.00 | 64 | 1012.7 |
| 20260507131017 | 57 | 161 | 3.5 | 7.8 | 0.00 | 0.00 | 0.00 | 65 | 1012.9 |
| 20260507125513 | 56 | 144 | 3.5 | 10.4 | 0.00 | 0.00 | 0.00 | 67 | 1012.9 |
| 20260507123316 | 56 | 222 | 4.3 | 10.4 | 0.00 | 0.00 | 0.00 | 70 | 1013.0 |
| 20260507121816 | 55 | 160 | 4.3 | 9.6 | 0.00 | 0.00 | 0.00 | 72 | 1013.0 |
| 20260507121021 | 54 | 149 | 3.5 | 10.4 | 0.00 | 0.00 | 0.00 | 73 | 1013.1 |
| 20260507114815 | 53 | 130 | 3.5 | 10.4 | 0.00 | 0.00 | 0.00 | 74 | 1013.1 |
| 20260507113316 | 53 | 129 | 3.5 | 9.6 | 0.00 | 0.00 | 0.00 | 77 | 1013.1 |
| 20260507111816 | 52 | 129 | 3.5 | 8.7 | 0.00 | 0.00 | 0.00 | 79 | 1013.2 |
| 20260507110316 | 50 | 145 | 3.5 | 9.6 | 0.00 | 0.00 | 0.00 | 81 | 1013.3 |
| 20260507104816 | 49 | 118 | 3.5 | 9.6 | 0.00 | 0.00 | 0.00 | 82 | 1013.4 |
| 20260507103316 | 49 | 111 | 4.3 | 11.3 | 0.00 | 0.00 | 0.00 | 83 | 1013.5 |
| 20260507101817 | 48 | 119 | 3.5 | 8.7 | 0.00 | 0.00 | 0.00 | 84 | 1013.6 |
| 20260507100316 | 47 | 131 | 3.5 | 10.4 | 0.00 | 0.00 | 0.00 | 85 | 1013.6 |
| 20260507094818 | 47 | 115 | 3.5 | 9.6 | 0.00 | 0.00 | 0.00 | 85 | 1013.5 |
| 20260507094701 | 47 | 120 | 5.2 | 11.3 | 0.00 | 0.00 | 0.00 | 84 | 1013.5 |
| 20260507092515 | 47 | 131 | 4.3 | 10.4 | 0.00 | 0.00 | 0.00 | 85 | 1013.5 |
| 20260507090317 | 47 | 123 | 3.5 | 10.4 | 0.00 | 0.00 | 0.00 | 85 | 1013.6 |
| 20260507084817 | 46 | 120 | 4.3 | 10.4 | 0.00 | 0.00 | 0.00 | 86 | 1013.5 |
| 20260507083316 | 46 | 139 | 5.2 | 11.3 | 0.00 | 0.00 | 0.00 | 87 | 1013.5 |
| 20260507081818 | 46 | 108 | 4.3 | 10.4 | 0.00 | 0.00 | 0.00 | 87 | 1013.4 |
| 20260507080315 | 46 | 96 | 5.2 | 10.4 | 0.00 | 0.00 | 0.00 | 87 | 1013.5 |
| 20260507074817 | 46 | 134 | 5.2 | 12.2 | 0.00 | 0.00 | 0.00 | 87 | 1013.5 |
| 20260507074028 | 46 | 139 | 5.2 | 9.6 | 0.00 | 0.00 | 0.00 | 87 | 1013.5 |
| 20260507071817 | 45 | 139 | 4.3 | 10.4 | 0.00 | 0.00 | 0.00 | 87 | 1013.4 |
| 20260507071710 | 45 | 84 | 4.3 | 9.6 | 0.00 | 0.00 | 0.00 | 87 | 1013.4 |
| 20260507064817 | 45 | 127 | 4.3 | 12.2 | 0.00 | 0.00 | 0.00 | 87 | 1013.3 |
| 20260507063317 | 45 | 95 | 5.2 | 11.3 | 0.00 | 0.00 | 0.00 | 87 | 1013.3 |
| 20260507061818 | 45 | 134 | 6.1 | 12.2 | 0.00 | 0.00 | 0.00 | 87 | 1013.2 |
| 20260507060309 | 45 | 105 | 4.3 | 11.3 | 0.00 | 0.00 | 0.00 | 87 | 1013.1 |
| 20260507055515 | 45 | 134 | 5.2 | 10.4 | 0.00 | 0.00 | 0.00 | 87 | 1013.1 |
| 20260507053309 | 45 | 145 | 4.3 | 10.4 | 0.00 | 0.00 | 0.00 | 87 | 1013.1 |
| 20260507051809 | 45 | 115 | 5.2 | 10.4 | 0.00 | 0.00 | 0.00 | 87 | 1013.0 |
| 20260507050311 | 45 | 134 | 5.2 | 10.4 | 0.00 | 0.00 | 0.00 | 87 | 1012.9 |
| 20260507044809 | 44 | 102 | 5.2 | 11.3 | 0.00 | 0.00 | 0.00 | 87 | 1012.9 |
| 20260507044708 | 44 | 111 | 5.2 | 10.4 | 0.00 | 0.00 | 0.00 | 87 | 1012.9 |
| 20260507041809 | 44 | 139 | 4.3 | 11.3 | 0.00 | 0.00 | 0.00 | 87 | 1012.9 |
| 20260507040309 | 44 | 105 | 4.3 | 11.3 | 0.00 | 0.00 | 0.00 | 86 | 1013.1 |
| 20260507034811 | 45 | 112 | 4.3 | 10.4 | 0.00 | 0.00 | 0.00 | 86 | 1013.1 |
| 20260507033311 | 45 | 143 | 5.2 | 11.3 | 0.00 | 0.01 | 0.00 | 86 | 1013.1 |
| 20260507031809 | 45 | 198 | 3.5 | 7.8 | 0.00 | 0.01 | 0.00 | 85 | 1013.1 |
| 20260507030309 | 45 | 113 | 4.3 | 8.7 | 0.00 | 0.01 | 0.00 | 85 | 1013.1 |
| 20260507024811 | 45 | 106 | 4.3 | 13.0 | 0.00 | 0.01 | 0.00 | 85 | 1013.3 |
| 20260507023309 | 45 | 193 | 3.5 | 10.4 | 0.00 | 0.01 | 0.00 | 85 | 1013.4 |
| 20260507021809 | 45 | 146 | 4.3 | 11.3 | 0.00 | 0.01 | 0.00 | 85 | 1013.3 |
| 20260507020305 | 45 | 166 | 4.3 | 9.6 | 0.00 | 0.01 | 0.00 | 84 | 1013.4 |
| 20260507014805 | 45 | 125 | 4.3 | 11.3 | 0.00 | 0.01 | 0.00 | 84 | 1013.4 |
| 20260507014006 | 45 | 108 | 4.3 | 11.3 | 0.00 | 0.01 | 0.00 | 83 | 1013.3 |
| 20260507011803 | 46 | 160 | 4.3 | 12.2 | 0.00 | 0.01 | 0.00 | 83 | 1013.3 |
| 20260507011644 | 46 | 135 | 4.3 | 12.2 | 0.00 | 0.01 | 0.00 | 82 | 1013.3 |
| 20260507004802 | 46 | 98 | 4.3 | 12.2 | 0.00 | 0.01 | 0.00 | 81 | 1013.3 |
| 20260507003259 | 46 | 83 | 4.3 | 10.4 | 0.00 | 0.01 | 0.00 | 81 | 1013.5 |
| 20260507001800 | 47 | 203 | 4.3 | 9.6 | 0.00 | 0.01 | 0.00 | 80 | 1013.6 |
| 20260507000300 | 47 | 136 | 4.3 | 9.6 | 0.00 | 0.01 | 0.00 | 80 | 1013.7 |
| 20260506234758 | 47 | 127 | 3.5 | 11.3 | 0.00 | 0.01 | 0.00 | 80 | 1013.6 |
| 20260506233257 | 47 | 108 | 2.6 | 7.8 | 0.00 | 0.01 | 0.00 | 79 | 1013.5 |
| 20260506231758 | 47 | 173 | 2.6 | 7.8 | 0.00 | 0.01 | 0.00 | 79 | 1013.5 |
| 20260506230958 | 47 | 160 | 2.6 | 5.2 | 0.00 | 0.01 | 0.00 | 78 | 1013.5 |
| 20260506224754 | 48 | 123 | 2.6 | 7.8 | 0.00 | 0.01 | 0.01 | 77 | 1013.4 |
| 20260506223955 | 48 | 101 | 2.6 | 5.2 | 0.00 | 0.01 | 0.01 | 76 | 1013.4 |